TimeCDT,TemperatureF,Dew PointF,Humidity,Sea Level PressureIn,VisibilityMPH,Wind Direction,Wind SpeedMPH,Gust SpeedMPH,PrecipitationIn,Events,Conditions,WindDirDegrees,DateUTC
12:24 AM,46.4,46.4,100,29.66,10.0,NNE,4.6,-,0.01,Rain,Light Rain,20,2013-04-18 05:24:00
12:34 AM,48.2,46.4,93,29.65,7.0,Calm,Calm,-,0.03,Rain-Thunderstorm,Thunderstorms and Rain,0,2013-04-18 05:34:00
12:53 AM,48.0,46.0,93,29.69,5.0,NW,4.6,-,0.08,Rain-Thunderstorm,Light Thunderstorms and Rain,320,2013-04-18 05:53:00
1:17 AM,46.4,46.4,100,29.66,3.0,WNW,4.6,-,0.08,Rain-Thunderstorm,Heavy Rain,290,2013-04-18 06:17:00
1:44 AM,48.2,46.4,93,29.65,7.0,North,5.8,-,0.15,Rain,Light Rain,10,2013-04-18 06:44:00
1:53 AM,48.0,46.0,93,29.67,9.0,WNW,6.9,-,0.15,Rain,Light Rain,300,2013-04-18 06:53:00
2:53 AM,45.0,43.0,93,29.64,10.0,NW,13.8,-,0.00,,Overcast,320,2013-04-18 07:53:00
3:53 AM,44.1,42.1,93,29.62,10.0,NW,12.7,21.9,0.04,Rain,Light Rain,310,2013-04-18 08:53:00
4:53 AM,44.1,42.1,93,29.57,10.0,NNW,11.5,-,0.02,,Overcast,340,2013-04-18 09:53:00
5:37 AM,42.8,41.0,93,29.58,10.0,North,8.1,-,0.01,Rain-Thunderstorm,Light Rain,360,2013-04-18 10:37:00
5:53 AM,43.0,41.0,93,29.56,8.0,North,6.9,-,0.03,Rain-Thunderstorm,Light Thunderstorms and Rain,10,2013-04-18 10:53:00
6:00 AM,42.8,41.0,93,29.57,10.0,NNW,5.8,-,0.00,,Overcast,340,2013-04-18 11:00:00
6:48 AM,42.8,39.2,87,29.59,2.5,NNW,8.1,-,0.00,,Overcast,340,2013-04-18 11:48:00
6:53 AM,42.1,41.0,96,29.60,3.0,NW,9.2,-,0.00,Rain,Light Rain,320,2013-04-18 11:53:00
7:19 AM,42.8,39.2,87,29.62,2.5,NW,11.5,-,0.05,Rain-Thunderstorm,Light Thunderstorms and Rain,310,2013-04-18 12:19:00
7:26 AM,42.8,39.2,87,29.61,3.0,NW,10.4,-,0.06,Rain-Thunderstorm,Light Thunderstorms and Rain,310,2013-04-18 12:26:00
7:37 AM,42.8,39.2,87,29.59,2.5,NW,12.7,-,0.06,Thunderstorm,Overcast,320,2013-04-18 12:37:00
7:43 AM,41.0,39.2,93,29.62,3.0,WNW,12.7,-,0.06,,Overcast,300,2013-04-18 12:43:00
7:53 AM,41.0,39.0,93,29.62,6.0,NW,13.8,-,0.06,,Overcast,310,2013-04-18 12:53:00
8:53 AM,39.0,37.0,93,29.65,2.5,WNW,16.1,-,N/A,,Overcast,300,2013-04-18 13:53:00
9:21 AM,39.2,37.4,93,29.64,3.0,WNW,15.0,26.5,N/A,,Overcast,290,2013-04-18 14:21:00
9:53 AM,39.0,36.0,89,29.67,6.0,WNW,13.8,25.3,N/A,,Overcast,290,2013-04-18 14:53:00
10:11 AM,39.2,35.6,87,29.67,8.0,WNW,15.0,25.3,N/A,,Overcast,290,2013-04-18 15:11:00
10:28 AM,39.2,35.6,87,29.68,5.0,West,16.1,23.0,N/A,,Overcast,280,2013-04-18 15:28:00
10:36 AM,37.4,35.6,93,29.68,4.0,WNW,16.1,24.2,N/A,,Overcast,290,2013-04-18 15:36:00
10:53 AM,37.9,35.1,89,29.71,3.0,WNW,16.1,26.5,N/A,,Overcast,290,2013-04-18 15:53:00
11:48 AM,39.2,35.6,87,29.71,10.0,WNW,19.6,26.5,N/A,,Overcast,290,2013-04-18 16:48:00
11:53 AM,39.0,35.1,86,29.72,10.0,West,16.1,26.5,N/A,,Overcast,280,2013-04-18 16:53:00
12:00 PM,39.2,35.6,87,29.71,10.0,West,19.6,28.8,N/A,,Overcast,280,2013-04-18 17:00:00
12:40 PM,39.2,33.8,81,29.74,10.0,WNW,19.6,28.8,0.00,,Overcast,290,2013-04-18 17:40:00
12:53 PM,39.9,34.0,79,29.77,10.0,WNW,20.7,29.9,0.00,,Overcast,300,2013-04-18 17:53:00
1:40 PM,39.2,33.8,81,29.75,10.0,West,19.6,27.6,0.00,,Overcast,280,2013-04-18 18:40:00
1:49 PM,39.2,33.8,81,29.75,10.0,West,20.7,27.6,0.00,,Overcast,280,2013-04-18 18:49:00
1:53 PM,39.0,33.1,79,29.77,10.0,WNW,20.7,28.8,0.00,,Overcast,290,2013-04-18 18:53:00
2:53 PM,39.0,32.0,76,29.79,10.0,WNW,15.0,24.2,N/A,,Overcast,300,2013-04-18 19:53:00
3:53 PM,39.0,30.9,73,29.81,10.0,West,19.6,28.8,N/A,,Overcast,280,2013-04-18 20:53:00
4:53 PM,37.9,30.0,73,29.84,10.0,WNW,15.0,21.9,N/A,,Overcast,290,2013-04-18 21:53:00
5:53 PM,39.0,30.0,70,29.87,10.0,WNW,16.1,25.3,N/A,,Overcast,290,2013-04-18 22:53:00
6:53 PM,39.0,30.0,70,29.88,10.0,WNW,12.7,18.4,N/A,,Overcast,290,2013-04-18 23:53:00
7:17 PM,39.2,28.4,65,29.86,10.0,WNW,19.6,26.5,N/A,,Overcast,290,2013-04-19 00:17:00
7:53 PM,39.0,28.0,65,29.90,10.0,WNW,13.8,27.6,N/A,,Overcast,290,2013-04-19 00:53:00
8:53 PM,37.9,26.1,62,29.92,10.0,WNW,17.3,28.8,N/A,,Overcast,290,2013-04-19 01:53:00
9:53 PM,37.9,27.0,65,29.94,10.0,WNW,15.0,-,N/A,,Overcast,290,2013-04-19 02:53:00
10:53 PM,37.0,26.1,65,29.94,10.0,WNW,15.0,23.0,N/A,,Overcast,290,2013-04-19 03:53:00
11:53 PM,37.0,25.0,62,29.93,10.0,WNW,12.7,23.0,N/A,,Overcast,290,2013-04-19 04:53:00